STARLINK-11643, 63192

Orbit data source: Space-Track

STARLINK-11643, 63192 is a payload satellite owned by SpaceX/Seattle (US) in LEO that was launched on Thu, 13 Mar 2025 UTC via an FALCON 9 launch vehicle from the Air Force Eastern Test Range (AFETR). Payload-class satellites include a variety of spacecraft equipped with specific instruments for various scientific and technological missions. These include communications satellites like Starlink; space stations such as the ISS; scientific satellites like the Hubble; Earth observation satellites from companies like Planet Labs, Umbra, and HawkEye 360; GPS; miniature CubeSats for education and research; and military/defense satellites.

Loading next visibility...
Identifier
63192, 2025-048K
Orbit
LEO
Country
Flag of USUS
Related business
Manufacturer
SpaceX/Seattle
Mission
Operational Commercial Communications
Bus & Motor
STARLINK V2MD, Unknown motor
Mass
960 kg wet, ~910 kg dry
Launch date (UTC)
2025-03-13 (1 year ago)
Launch vehicle
FALCON 9
Launch site
Air Force Eastern Test Range (AFETR)
Object type
Payload
Rocket body
Debris
Shape & HBR
Box + 2 Pan, 18.1 m
Radar Cross Section
36.964 m², Large (>1 m²)

Expand to show TLE details & history
Last TLE update: 11 hours ago

TLE from 11 hours ago
0 STARLINK-11643
1 63192U 25048K   26171.39325397  .00214553  00000-0  16299-2 0  9997
2 63192  43.0005  60.8427 0000716 335.4082  24.6751 15.70881689 74673
Epoch: 2026-06-20T09:26Z
TLE epoch observation values (Epoch: 2026-06-20T09:26:17.143Z)
Latitude
-0.00003°
Longitude
10.66272°
Altitude
355.709 km
Speed
7.698 km/s
True Right ascension
04h 03m 22s
True Declination
0° 00' 00"
Sunlit
Object was in daylight at epoch
Visualization orbit readout
Latitude
Unknown
Longitude
Unknown
Altitude
Unknown
Speed
Unknown
Apparent Right ascension
Unknown
Apparent Declination
Unknown
Sunlit
N/A
Visualization observer readout
Local Sidereal Time
07:18:37
Azimuth
Unknown
Elevation
Unknown
Doppler factor
Unknown
Orbital elements
Apogee altitude
358.84 km
Perigee altitude
357.875 km
Semi-major axis
6,736.494 km
Eccentricity
0.00007
Inclination
43.0005°
RAAN
60.8427°
Arg. of periapsis
335.4082°
True anomaly
24.67853°
Mean anomaly
24.6751°
Eccentric anomaly
24.67681°
Mean motion
3.92548 °/min
Orbital period
91.71 mins
BSTAR
0.0016299
Loading maneuver chart data...
Computing Atmospheric mass density...
Loading historical data...
Loading historical data...
Loading historical data...
Loading historical data...
Loading historical data...
Loading historical data...
Loading historical data...

Documentation

Showing up to 5 results
|